Time,TemperatureF,DewpointF,PressureIn,WindDirection,WindDirectionDegrees,WindSpeedMPH,WindSpeedGustMPH,Humidity,HourlyPrecipIn,Conditions,Clouds,dailyrainin,SolarRadiationWatts/m^2,SoftwareType,DateUTC
2013-03-09 00:02:00,44.6,40.4,30.09,SSE,153,5.0,5.0,85,0.00,,,0.00,0,Wunderground v.1.15,2013-03-09 08:02:00,
2013-03-09 00:12:00,44.5,40.6,30.09,SSE,154,6.0,8.0,86,0.00,,,0.00,0,Wunderground v.1.15,2013-03-09 08:12:00,
2013-03-09 00:22:00,44.7,40.8,30.09,SSE,159,6.0,6.0,86,0.00,,,0.00,0,Wunderground v.1.15,2013-03-09 08:22:00,
2013-03-09 00:32:00,44.5,40.3,30.10,SE,138,3.0,5.0,85,0.00,,,0.00,0,Wunderground v.1.15,2013-03-09 08:32:00,
2013-03-09 00:42:00,44.4,40.5,30.11,SSE,165,5.0,5.0,86,0.00,,,0.00,0,Wunderground v.1.15,2013-03-09 08:42:00,
2013-03-09 00:52:00,44.5,40.6,30.11,SSE,157,5.0,6.0,86,0.00,,,0.00,0,Wunderground v.1.15,2013-03-09 08:52:00,
2013-03-09 01:02:00,44.3,40.4,30.12,SE,146,3.0,6.0,86,0.00,,,0.00,0,Wunderground v.1.15,2013-03-09 09:02:00,
2013-03-09 01:12:00,44.2,40.6,30.13,SSE,157,6.0,6.0,87,0.00,,,0.00,0,Wunderground v.1.15,2013-03-09 09:12:00,
2013-03-09 01:22:00,44.5,40.9,30.13,SSE,150,5.0,9.0,87,0.00,,,0.00,0,Wunderground v.1.15,2013-03-09 09:22:00,
2013-03-09 01:32:00,44.7,41.1,30.13,SSE,151,7.0,12.0,87,0.00,,,0.00,0,Wunderground v.1.15,2013-03-09 09:32:00,
2013-03-09 01:42:00,44.4,40.8,30.13,SE,142,7.0,7.0,87,0.00,,,0.00,0,Wunderground v.1.15,2013-03-09 09:42:00,
2013-03-09 01:52:00,44.0,40.4,30.13,SSE,147,6.0,6.0,87,0.00,,,0.00,0,Wunderground v.1.15,2013-03-09 09:52:00,
2013-03-09 02:02:00,43.8,40.5,30.13,SE,138,5.0,5.0,88,0.00,,,0.00,0,Wunderground v.1.15,2013-03-09 10:02:00,
2013-03-09 02:12:00,43.3,40.0,30.13,SE,142,3.0,3.0,88,0.00,,,0.00,0,Wunderground v.1.15,2013-03-09 10:12:00,
2013-03-09 02:22:00,43.0,39.7,30.13,SSE,148,1.0,1.0,88,0.00,,,0.00,0,Wunderground v.1.15,2013-03-09 10:22:00,
2013-03-09 02:32:00,42.9,39.6,30.13,SSE,150,1.0,1.0,88,0.00,,,0.00,0,Wunderground v.1.15,2013-03-09 10:32:00,
2013-03-09 02:42:00,42.8,39.5,30.13,SSE,150,0.0,1.0,88,0.00,,,0.00,0,Wunderground v.1.15,2013-03-09 10:42:00,
2013-03-09 02:52:00,43.2,40.2,30.13,SSE,163,2.0,6.0,89,0.00,,,0.00,0,Wunderground v.1.15,2013-03-09 10:52:00,
2013-03-09 03:02:00,43.4,40.4,30.13,SSE,157,3.0,4.0,89,0.00,,,0.00,0,Wunderground v.1.15,2013-03-09 11:02:00,
2013-03-09 03:12:00,43.3,40.3,30.13,SE,146,5.0,6.0,89,0.00,,,0.00,0,Wunderground v.1.15,2013-03-09 11:12:00,
2013-03-09 03:22:00,42.4,39.1,30.13,SSE,157,4.0,7.0,88,0.00,,,0.00,0,Wunderground v.1.15,2013-03-09 11:22:00,
2013-03-09 03:32:00,42.8,40.1,30.13,SSE,159,4.0,4.0,90,0.00,,,0.00,0,Wunderground v.1.15,2013-03-09 11:32:00,
2013-03-09 03:42:00,42.7,39.7,30.13,SSE,161,3.0,3.0,89,0.00,,,0.00,0,Wunderground v.1.15,2013-03-09 11:42:00,
2013-03-09 03:52:00,42.7,39.7,30.15,SSE,160,0.0,0.0,89,0.00,,,0.00,0,Wunderground v.1.15,2013-03-09 11:52:00,
2013-03-09 04:02:00,42.4,39.4,30.15,SSE,163,0.0,0.0,89,0.00,,,0.00,0,Wunderground v.1.15,2013-03-09 12:02:00,
2013-03-09 04:12:00,42.2,39.5,30.16,SSE,163,0.0,0.0,90,0.00,,,0.00,0,Wunderground v.1.15,2013-03-09 12:12:00,
2013-03-09 04:22:00,41.3,38.3,30.16,SSE,163,0.0,0.0,89,0.00,,,0.00,0,Wunderground v.1.15,2013-03-09 12:22:00,
2013-03-09 04:32:00,41.0,38.3,30.17,SSE,163,1.0,1.0,90,0.00,,,0.00,0,Wunderground v.1.15,2013-03-09 12:32:00,
2013-03-09 04:42:00,41.0,38.3,30.18,SSE,165,1.0,1.0,90,0.00,,,0.00,0,Wunderground v.1.15,2013-03-09 12:42:00,
2013-03-09 04:52:00,40.7,38.0,30.19,SSE,165,0.0,0.0,90,0.00,,,0.00,0,Wunderground v.1.15,2013-03-09 12:52:00,
2013-03-09 05:02:00,40.7,38.0,30.20,SSE,165,0.0,0.0,90,0.00,,,0.00,0,Wunderground v.1.15,2013-03-09 13:02:00,
2013-03-09 05:12:00,40.8,38.1,30.20,SSE,166,0.0,0.0,90,0.00,,,0.00,0,Wunderground v.1.15,2013-03-09 13:12:00,
2013-03-09 05:22:00,40.7,38.0,30.21,SSE,166,0.0,0.0,90,0.00,,,0.00,0,Wunderground v.1.15,2013-03-09 13:22:00,
2013-03-09 05:32:00,40.5,37.8,30.22,SSE,165,0.0,0.0,90,0.00,,,0.00,0,Wunderground v.1.15,2013-03-09 13:32:00,
2013-03-09 05:42:00,40.4,37.7,30.23,SSE,165,0.0,0.0,90,0.00,,,0.00,0,Wunderground v.1.15,2013-03-09 13:42:00,
2013-03-09 05:52:00,40.2,37.5,30.23,SSE,165,0.0,2.0,90,0.00,,,0.00,0,Wunderground v.1.15,2013-03-09 13:52:00,
2013-03-09 06:02:00,39.7,37.0,30.24,SSE,166,1.0,2.0,90,0.00,,,0.00,0,Wunderground v.1.15,2013-03-09 14:02:00,
2013-03-09 06:12:00,39.5,36.8,30.24,SSE,166,2.0,2.0,90,0.00,,,0.00,0,Wunderground v.1.15,2013-03-09 14:12:00,
2013-03-09 06:22:00,39.5,37.1,30.24,SSE,166,0.0,0.0,91,0.00,,,0.00,0,Wunderground v.1.15,2013-03-09 14:22:00,
2013-03-09 06:32:00,39.3,36.6,30.24,SSE,166,0.0,1.0,90,0.00,,,0.00,5,Wunderground v.1.15,2013-03-09 14:32:00,
2013-03-09 06:42:00,39.1,36.4,30.25,SSE,165,0.0,0.0,90,0.00,,,0.00,12,Wunderground v.1.15,2013-03-09 14:42:00,
2013-03-09 06:52:00,39.2,36.8,30.25,SSE,166,0.0,0.0,91,0.00,,,0.00,26,Wunderground v.1.15,2013-03-09 14:52:00,
2013-03-09 07:02:00,39.5,37.1,30.25,SSE,166,0.0,0.0,91,0.00,,,0.00,49,Wunderground v.1.15,2013-03-09 15:02:00,
2013-03-09 07:12:00,40.0,37.6,30.26,SSE,166,0.0,0.0,91,0.00,,,0.00,77,Wunderground v.1.15,2013-03-09 15:12:00,
2013-03-09 07:22:00,40.9,38.8,30.26,SSE,166,0.0,0.0,92,0.00,,,0.00,105,Wunderground v.1.15,2013-03-09 15:22:00,
2013-03-09 07:32:00,41.7,39.5,30.27,SSE,166,0.0,0.0,92,0.00,,,0.00,142,Wunderground v.1.15,2013-03-09 15:32:00,
2013-03-09 07:42:00,42.5,40.3,30.27,SSE,165,0.0,0.0,92,0.00,,,0.00,183,Wunderground v.1.15,2013-03-09 15:42:00,
2013-03-09 07:52:00,44.0,41.8,30.27,SSE,165,0.0,0.0,92,0.00,,,0.00,218,Wunderground v.1.15,2013-03-09 15:52:00,
2013-03-09 08:02:00,45.1,42.6,30.28,SSE,166,0.0,0.0,91,0.00,,,0.00,253,Wunderground v.1.15,2013-03-09 16:02:00,
2013-03-09 08:12:00,46.9,43.2,30.28,SSE,166,0.0,0.0,87,0.00,,,0.00,294,Wunderground v.1.15,2013-03-09 16:12:00,
2013-03-09 08:22:00,49.0,44.1,30.28,SSE,166,0.0,0.0,83,0.00,,,0.00,330,Wunderground v.1.15,2013-03-09 16:22:00,
2013-03-09 08:32:00,49.2,43.0,30.28,SSE,165,0.0,0.0,79,0.00,,,0.00,373,Wunderground v.1.15,2013-03-09 16:32:00,
2013-03-09 08:42:00,48.4,41.9,30.28,SSE,166,0.0,0.0,78,0.00,,,0.00,410,Wunderground v.1.15,2013-03-09 16:42:00,
2013-03-09 08:52:00,49.0,41.1,30.29,SSE,166,0.0,0.0,74,0.00,,,0.00,439,Wunderground v.1.15,2013-03-09 16:52:00,
2013-03-09 09:02:00,50.1,41.4,30.29,SSE,166,0.0,0.0,72,0.00,,,0.00,473,Wunderground v.1.15,2013-03-09 17:02:00,
2013-03-09 09:12:00,50.4,41.0,30.30,SSE,166,0.0,1.0,70,0.00,,,0.00,503,Wunderground v.1.15,2013-03-09 17:12:00,
2013-03-09 09:22:00,51.1,42.0,30.30,SSE,166,0.0,0.0,71,0.00,,,0.00,531,Wunderground v.1.15,2013-03-09 17:22:00,
2013-03-09 09:32:00,52.1,43.0,30.30,SE,129,1.0,1.0,71,0.00,,,0.00,561,Wunderground v.1.15,2013-03-09 17:32:00,
2013-03-09 09:42:00,54.3,43.6,30.30,North,355,1.0,3.0,67,0.00,,,0.00,587,Wunderground v.1.15,2013-03-09 17:42:00,
2013-03-09 09:52:00,54.6,43.5,30.30,NNW,333,1.0,1.0,66,0.00,,,0.00,610,Wunderground v.1.15,2013-03-09 17:52:00,
2013-03-09 10:02:00,55.1,42.3,30.29,NNW,341,1.0,1.0,62,0.00,,,0.00,636,Wunderground v.1.15,2013-03-09 18:02:00,
2013-03-09 10:12:00,56.9,42.7,30.30,NE,36,0.0,2.0,59,0.00,,,0.00,663,Wunderground v.1.15,2013-03-09 18:12:00,
2013-03-09 10:22:00,57.5,42.4,30.30,NNW,335,2.0,4.0,57,0.00,,,0.00,679,Wunderground v.1.15,2013-03-09 18:22:00,
2013-03-09 10:32:00,56.1,40.1,30.30,NNW,337,3.0,3.0,55,0.00,,,0.00,694,Wunderground v.1.15,2013-03-09 18:32:00,
2013-03-09 10:42:00,56.9,39.4,30.31,NE,37,3.0,3.0,52,0.00,,,0.00,715,Wunderground v.1.15,2013-03-09 18:42:00,
2013-03-09 10:52:00,56.9,39.9,30.31,North,10,3.0,3.0,53,0.00,,,0.00,729,Wunderground v.1.15,2013-03-09 18:52:00,
2013-03-09 11:02:00,57.1,40.1,30.31,ENE,58,4.0,4.0,53,0.00,,,0.00,745,Wunderground v.1.15,2013-03-09 19:02:00,
2013-03-09 11:12:00,58.2,39.6,30.31,NNE,16,3.0,4.0,50,0.00,,,0.00,756,Wunderground v.1.15,2013-03-09 19:12:00,
2013-03-09 11:22:00,59.0,39.9,30.31,NNE,33,2.0,3.0,49,0.00,,,0.00,770,Wunderground v.1.15,2013-03-09 19:22:00,
2013-03-09 11:32:00,59.0,39.3,30.32,NW,317,2.0,2.0,48,0.00,,,0.00,777,Wunderground v.1.15,2013-03-09 19:32:00,
2013-03-09 11:42:00,60.4,40.1,30.32,WNW,300,3.0,3.0,47,0.00,,,0.00,782,Wunderground v.1.15,2013-03-09 19:42:00,
2013-03-09 11:52:00,60.6,39.7,30.32,West,275,3.0,3.0,46,0.00,,,0.00,795,Wunderground v.1.15,2013-03-09 19:52:00,
2013-03-09 12:02:00,61.2,39.7,30.31,NE,38,4.0,4.0,45,0.00,,,0.00,798,Wunderground v.1.15,2013-03-09 20:02:00,
2013-03-09 12:12:00,61.3,38.6,30.31,NNW,338,5.0,9.0,43,0.00,,,0.00,800,Wunderground v.1.15,2013-03-09 20:12:00,
2013-03-09 12:22:00,61.6,38.3,30.31,North,360,5.0,6.0,42,0.00,,,0.00,800,Wunderground v.1.15,2013-03-09 20:22:00,
2013-03-09 12:32:00,62.3,38.9,30.31,NNW,341,5.0,6.0,42,0.00,,,0.00,796,Wunderground v.1.15,2013-03-09 20:32:00,
2013-03-09 12:42:00,62.5,37.8,30.30,North,5,5.0,10.0,40,0.00,,,0.00,793,Wunderground v.1.15,2013-03-09 20:42:00,
2013-03-09 12:52:00,62.7,38.0,30.30,NW,305,4.0,4.0,40,0.00,,,0.00,788,Wunderground v.1.15,2013-03-09 20:52:00,
2013-03-09 13:02:00,64.2,39.4,30.30,NNW,332,3.0,3.0,40,0.00,,,0.00,782,Wunderground v.1.15,2013-03-09 21:02:00,
2013-03-09 13:12:00,64.1,37.3,30.30,North,11,3.0,4.0,37,0.00,,,0.00,772,Wunderground v.1.15,2013-03-09 21:12:00,
2013-03-09 13:22:00,64.3,37.5,30.30,NW,309,5.0,5.0,37,0.00,,,0.00,763,Wunderground v.1.15,2013-03-09 21:22:00,
2013-03-09 13:32:00,64.9,37.3,30.29,North,11,3.0,7.0,36,0.00,,,0.00,751,Wunderground v.1.15,2013-03-09 21:32:00,
2013-03-09 13:42:00,65.4,37.7,30.29,NW,323,4.0,6.0,36,0.00,,,0.00,737,Wunderground v.1.15,2013-03-09 21:42:00,
2013-03-09 13:52:00,65.2,37.6,30.29,NNW,333,6.0,6.0,36,0.00,,,0.00,719,Wunderground v.1.15,2013-03-09 21:52:00,
2013-03-09 14:02:00,66.2,39.1,30.28,WNW,285,3.0,3.0,37,0.00,,,0.00,703,Wunderground v.1.15,2013-03-09 22:02:00,
2013-03-09 14:12:00,66.2,37.7,30.29,North,360,4.0,12.0,35,0.00,,,0.00,686,Wunderground v.1.15,2013-03-09 22:12:00,
2013-03-09 14:22:00,65.9,38.2,30.29,NNE,15,5.0,9.0,36,0.00,,,0.00,664,Wunderground v.1.15,2013-03-09 22:22:00,
2013-03-09 14:32:00,66.4,38.6,30.28,North,10,6.0,6.0,36,0.00,,,0.00,643,Wunderground v.1.15,2013-03-09 22:32:00,
2013-03-09 14:42:00,66.1,37.6,30.29,North,351,6.0,10.0,35,0.00,,,0.00,621,Wunderground v.1.15,2013-03-09 22:42:00,
2013-03-09 14:52:00,66.5,38.0,30.28,North,9,7.0,7.0,35,0.00,,,0.00,598,Wunderground v.1.15,2013-03-09 22:52:00,
2013-03-09 15:02:00,66.7,39.6,30.28,West,279,6.0,6.0,37,0.00,,,0.00,513,Wunderground v.1.15,2013-03-09 23:02:00,
2013-03-09 15:12:00,67.0,39.9,30.28,WNW,283,3.0,8.0,37,0.00,,,0.00,40,Wunderground v.1.15,2013-03-09 23:12:00,
2013-03-09 15:22:00,67.2,37.9,30.28,NW,309,4.0,4.0,34,0.00,,,0.00,520,Wunderground v.1.15,2013-03-09 23:22:00,
2013-03-09 15:32:00,67.0,38.4,30.28,West,268,6.0,6.0,35,0.00,,,0.00,487,Wunderground v.1.15,2013-03-09 23:32:00,
2013-03-09 15:42:00,66.9,37.6,30.28,WNW,291,6.0,6.0,34,0.00,,,0.00,459,Wunderground v.1.15,2013-03-09 23:42:00,
2013-03-09 15:52:00,67.1,37.8,30.28,WNW,293,5.0,5.0,34,0.00,,,0.00,431,Wunderground v.1.15,2013-03-09 23:52:00,
2013-03-09 16:02:00,67.5,36.6,30.28,WNW,283,4.0,4.0,32,0.00,,,0.00,403,Wunderground v.1.15,2013-03-10 00:02:00,
2013-03-09 16:12:00,67.3,36.4,30.28,WNW,295,6.0,6.0,32,0.00,,,0.00,79,Wunderground v.1.15,2013-03-10 00:12:00,
2013-03-09 16:22:00,67.2,37.1,30.28,WNW,288,5.0,5.0,33,0.00,,,0.00,37,Wunderground v.1.15,2013-03-10 00:22:00,
2013-03-09 16:32:00,67.1,38.5,30.28,WNW,294,3.0,3.0,35,0.00,,,0.00,32,Wunderground v.1.15,2013-03-10 00:32:00,
2013-03-09 16:42:00,66.8,39.7,30.28,WNW,286,4.0,5.0,37,0.00,,,0.00,40,Wunderground v.1.15,2013-03-10 00:42:00,
2013-03-09 16:52:00,66.6,39.5,30.28,West,279,3.0,3.0,37,0.00,,,0.00,28,Wunderground v.1.15,2013-03-10 00:52:00,
2013-03-09 17:02:00,66.3,39.9,30.28,NW,306,1.0,1.0,38,0.00,,,0.00,28,Wunderground v.1.15,2013-03-10 01:02:00,
2013-03-09 17:12:00,66.0,41.0,30.28,WNW,295,0.0,0.0,40,0.00,,,0.00,32,Wunderground v.1.15,2013-03-10 01:12:00,
2013-03-09 17:22:00,65.5,40.5,30.28,WNW,294,0.0,0.0,40,0.00,,,0.00,23,Wunderground v.1.15,2013-03-10 01:22:00,
2013-03-09 17:32:00,65.0,40.1,30.28,WNW,290,1.0,1.0,40,0.00,,,0.00,19,Wunderground v.1.15,2013-03-10 01:32:00,
2013-03-09 17:42:00,64.5,40.3,30.28,West,265,1.0,1.0,41,0.00,,,0.00,16,Wunderground v.1.15,2013-03-10 01:42:00,
2013-03-09 17:52:00,64.0,40.4,30.29,West,263,1.0,1.0,42,0.00,,,0.00,14,Wunderground v.1.15,2013-03-10 01:52:00,
2013-03-09 18:02:00,63.4,40.5,30.29,West,280,0.0,0.0,43,0.00,,,0.00,7,Wunderground v.1.15,2013-03-10 02:02:00,
2013-03-09 18:12:00,62.9,40.6,30.29,West,278,0.0,0.0,44,0.00,,,0.00,0,Wunderground v.1.15,2013-03-10 02:12:00,
2013-03-09 18:22:00,62.3,41.2,30.30,WSW,253,0.0,0.0,46,0.00,,,0.00,0,Wunderground v.1.15,2013-03-10 02:22:00,
2013-03-09 18:32:00,61.7,41.8,30.30,SW,235,0.0,0.0,48,0.00,,,0.00,0,Wunderground v.1.15,2013-03-10 02:32:00,
2013-03-09 18:42:00,61.1,42.3,30.30,SW,234,0.0,0.0,50,0.00,,,0.00,0,Wunderground v.1.15,2013-03-10 02:42:00,
2013-03-09 18:52:00,60.5,42.3,30.30,WSW,240,0.0,0.0,51,0.00,,,0.00,0,Wunderground v.1.15,2013-03-10 02:52:00,
2013-03-09 19:02:00,60.0,42.3,30.30,NW,322,0.0,1.0,52,0.00,,,0.00,0,Wunderground v.1.15,2013-03-10 03:02:00,
2013-03-09 19:12:00,59.6,41.9,30.30,WNW,288,0.0,0.0,52,0.00,,,0.00,0,Wunderground v.1.15,2013-03-10 03:12:00,
2013-03-09 19:22:00,59.1,41.5,30.30,WNW,288,0.0,0.0,52,0.00,,,0.00,0,Wunderground v.1.15,2013-03-10 03:22:00,
2013-03-09 19:32:00,59.0,41.4,30.30,WNW,288,0.0,0.0,52,0.00,,,0.00,0,Wunderground v.1.15,2013-03-10 03:32:00,
2013-03-09 19:42:00,58.6,41.0,30.30,WNW,287,0.0,0.0,52,0.00,,,0.00,0,Wunderground v.1.15,2013-03-10 03:42:00,
2013-03-09 19:52:00,58.2,41.1,30.31,WNW,287,0.0,0.0,53,0.00,,,0.00,0,Wunderground v.1.15,2013-03-10 03:52:00,
2013-03-09 20:02:00,57.8,40.8,30.31,WNW,288,0.0,0.0,53,0.00,,,0.00,0,Wunderground v.1.15,2013-03-10 04:02:00,
2013-03-09 20:12:00,57.4,40.4,30.32,WNW,286,0.0,1.0,53,0.00,,,0.00,0,Wunderground v.1.15,2013-03-10 04:12:00,
2013-03-09 20:22:00,56.9,40.4,30.32,WNW,284,0.0,0.0,54,0.00,,,0.00,0,Wunderground v.1.15,2013-03-10 04:22:00,
2013-03-09 20:32:00,56.6,40.1,30.32,SW,221,0.0,0.0,54,0.00,,,0.00,0,Wunderground v.1.15,2013-03-10 04:32:00,
2013-03-09 20:42:00,56.3,39.9,30.32,SW,225,0.0,0.0,54,0.00,,,0.00,0,Wunderground v.1.15,2013-03-10 04:42:00,
2013-03-09 20:52:00,56.0,39.6,30.32,SW,219,0.0,0.0,54,0.00,,,0.00,0,Wunderground v.1.15,2013-03-10 04:52:00,
2013-03-09 21:02:00,55.9,39.5,30.32,SW,217,0.0,0.0,54,0.00,,,0.00,0,Wunderground v.1.15,2013-03-10 05:02:00,
2013-03-09 21:12:00,55.7,40.2,30.32,SW,217,0.0,1.0,56,0.00,,,0.00,0,Wunderground v.1.15,2013-03-10 05:12:00,
2013-03-09 21:22:00,55.1,40.1,30.33,SW,217,0.0,1.0,57,0.00,,,0.00,0,Wunderground v.1.15,2013-03-10 05:22:00,
2013-03-09 21:32:00,54.3,40.3,30.33,SSE,163,2.0,2.0,59,0.00,,,0.00,0,Wunderground v.1.15,2013-03-10 05:32:00,
2013-03-09 21:42:00,53.9,39.5,30.33,SSE,163,0.0,0.0,58,0.00,,,0.00,0,Wunderground v.1.15,2013-03-10 05:42:00,
2013-03-09 21:52:00,53.7,39.3,30.34,SSE,163,0.0,0.0,58,0.00,,,0.00,0,Wunderground v.1.15,2013-03-10 05:52:00,
2013-03-09 22:02:00,53.5,39.9,30.33,SSE,163,1.0,2.0,60,0.00,,,0.00,0,Wunderground v.1.15,2013-03-10 06:02:00,
2013-03-09 22:12:00,52.3,40.1,30.34,SSE,159,4.0,4.0,63,0.00,,,0.00,0,Wunderground v.1.15,2013-03-10 06:12:00,
2013-03-09 22:22:00,52.1,39.9,30.34,SSE,159,2.0,5.0,63,0.00,,,0.00,0,Wunderground v.1.15,2013-03-10 06:22:00,
2013-03-09 22:32:00,51.2,39.4,30.34,SSE,161,3.0,3.0,64,0.00,,,0.00,0,Wunderground v.1.15,2013-03-10 06:32:00,
2013-03-09 22:42:00,51.0,39.6,30.34,SSE,160,0.0,0.0,65,0.00,,,0.00,0,Wunderground v.1.15,2013-03-10 06:42:00,
2013-03-09 22:52:00,50.4,39.5,30.34,SSE,163,2.0,2.0,66,0.00,,,0.00,0,Wunderground v.1.15,2013-03-10 06:52:00,
2013-03-09 23:02:00,49.9,39.0,30.33,SSE,163,1.0,3.0,66,0.00,,,0.00,0,Wunderground v.1.15,2013-03-10 07:02:00,
2013-03-09 23:12:00,48.9,39.9,30.33,SSE,151,8.0,8.0,71,0.00,,,0.00,0,Wunderground v.1.15,2013-03-10 07:12:00,
2013-03-09 23:22:00,49.0,39.3,30.33,SSE,153,4.0,4.0,69,0.00,,,0.00,0,Wunderground v.1.15,2013-03-10 07:22:00,
2013-03-09 23:32:00,48.3,39.7,30.33,SSE,156,5.0,5.0,72,0.00,,,0.00,0,Wunderground v.1.15,2013-03-10 07:32:00,
2013-03-09 23:42:00,47.7,39.1,30.33,SSE,157,3.0,3.0,72,0.00,,,0.00,0,Wunderground v.1.15,2013-03-10 07:42:00,
2013-03-09 23:52:00,47.4,39.2,30.33,SSE,152,4.0,9.0,73,0.00,,,0.00,0,Wunderground v.1.15,2013-03-10 07:52:00,